Wind_Speed
22 23 24 25 26 28 29 30 32 33 34 35 35 36 37 38 39 39 40 41 43 45 46 46 46 46 45 45 45 45 45 45 45 46 47 48 50 52 54 56 58 60 61 61 62 63 65 68 70 73 75 76 78 80 82 84 85 87 88 89 90 91 92 93 93 94 95 96 96 97 97 98 98 98 98 97 96 94 92 91 89 88 87 86 85
23 24 25 26 27 28 29 31 32 33 33 34 35 36 37 38 39 40 40 41 43 45 47 48 48 48 48 47 47 47 47 47 47 48 49 50 52 54 56 58 60 62 63 64 65 66 68 71 73 75 77 79 81 83 84 86 87 89 90 91 92 93 94 95 96 96 97 98 98 99 100 100 100 100 99 99 97 96 94 92 90 88 86 84 85
24 25 25 26 27 28 29 31 32 33 33 34 35 36 36 37 38 39 40 41 43 45 48 49 50 50 50 50 49 49 49 49 49 50 50 52 53 55 57 60 61 63 64 65 67 68 70 73 75 77 79 81 83 85 86 88 90 91 93 94 95 96 97 98 98 99 100 100 101 102 102 102 102 102 101 100 99 97 96 94 92 89 86 83 82
25 26 26 27 27 28 29 31 32 33 34 35 35 36 37 37 38 39 40 41 43 45 48 50 51 52 52 52 52 51 51 51 51 52 53 54 55 57 59 62 63 65 66 67 68 70 72 74 77 79 81 82 84 86 88 90 92 94 95 97 98 98 99 100 101 102 103 103 104 105 105 105 105 105 104 102 101 99 97 95 93 91 87 83 82
27 28 28 28 28 29 30 31 33 35 36 37 37 37 38 38 39 40 41 42 43 46 49 51 53 53 54 54 54 54 54 54 55 55 56 57 58 60 62 65 67 68 69 69 71 73 75 77 79 81 83 84 86 88 90 92 94 96 97 99 100 101 102 103 104 105 106 106 107 107 108 108 108 107 106 105 103 101 99 97 94 92 89 85 83
30 30 30 30 30 30 31 33 35 37 39 39 40 40 40 40 41 41 42 43 45 47 50 52 54 55 56 56 57 57 57 57 58 58 59 60 61 63 65 68 70 71 72 72 74 75 77 79 81 83 85 87 88 90 92 94 96 98 100 101 102 103 104 105 106 107 108 109 110 110 111 111 111 110 109 107 105 104 102 99 96 93 90 87 85
32 33 33 33 32 32 33 34 37 39 40 41 42 42 42 42 43 43 44 45 46 49 51 53 55 56 58 59 59 60 60 61 61 62 63 63 64 66 69 71 73 75 75 76 77 78 80 82 84 86 87 89 91 93 95 97 99 101 102 104 105 106 107 108 109 110 111 112 112 112 113 113 113 112 111 110 108 106 104 101 99 96 92 89 87
33 34 35 35 35 34 34 36 38 39 41 42 43 44 44 45 46 46 46 46 48 50 53 55 57 59 61 62 62 63 63 64 65 65 65 66 67 69 72 74 76 77 79 80 80 81 83 84 86 88 90 92 94 95 98 100 102 104 105 107 108 109 110 111 112 113 114 114 115 115 115 115 115 114 113 112 110 108 106 103 100 98 95 92 90
35 36 37 37 37 36 36 37 39 40 41 43 44 45 46 47 48 49 49 49 50 53 55 57 59 61 63 65 66 66 66 67 67 67 68 69 70 72 75 77 79 80 81 82 83 84 86 87 90 92 93 95 97 99 101 103 105 106 108 110 111 112 113 114 115 116 116 117 117 117 117 118 117 116 115 114 112 110 108 105 102 99 97 94 92
37 38 38 39 39 38 38 39 40 41 42 43 45 47 48 49 50 51 51 52 53 56 57 59 61 63 65 67 69 69 69 69 70 70 71 71 73 75 78 80 81 82 83 84 85 87 89 91 93 95 97 99 100 102 104 106 108 110 111 113 114 115 116 117 117 118 118 119 119 119 119 120 119 118 117 116 115 113 110 107 105 102 100 97 96
39 40 40 41 41 41 40 41 42 43 44 45 46 48 49 51 52 53 53 54 56 58 60 62 63 65 67 69 70 71 71 71 72 73 73 74 76 78 80 82 83 84 86 87 88 90 92 95 97 99 101 102 104 106 108 109 111 113 114 115 116 117 118 119 119 120 120 121 121 121 122 122 121 120 119 118 116 114 112 109 107 105 103 101 100
41 42 42 43 44 43 43 43 44 45 46 47 48 49 50 52 54 54 55 56 58 60 61 63 65 66 68 70 72 73 73 73 74 75 76 76 78 81 83 86 87 88 89 90 91 93 95 98 101 103 105 106 108 110 111 113 115 116 117 118 119 120 120 121 121 122 122 123 123 123 124 124 123 122 121 120 118 116 113 111 109 107 106 104 103
43 44 44 45 46 46 45 45 46 47 48 49 50 51 52 53 55 56 57 58 59 61 63 65 67 68 70 72 74 75 75 75 76 77 78 79 81 83 86 89 91 92 93 94 95 97 99 102 104 106 108 109 111 113 115 116 118 119 120 121 122 123 123 123 124 124 125 125 126 126 126 126 126 125 124 122 120 118 115 113 111 109 108 106 105
46 46 47 48 49 49 48 47 49 50 51 52 53 54 54 55 57 58 59 60 61 63 64 66 68 70 72 74 76 77 78 78 79 80 81 83 85 87 90 92 94 96 98 98 99 100 102 105 107 109 111 112 114 115 117 118 120 121 122 124 125 125 126 126 127 127 127 128 128 129 129 129 129 128 126 125 123 120 118 116 114 112 111 109 108
48 49 50 51 51 51 50 50 51 53 54 55 56 56 57 58 59 60 61 62 63 65 67 68 70 72 75 77 78 80 81 82 82 83 84 87 89 92 94 96 97 99 101 101 102 103 105 107 109 111 114 115 116 118 119 120 122 123 124 126 127 128 129 129 130 130 131 131 132 132 133 132 132 131 129 127 125 123 121 119 117 116 114 113 112
51 52 53 53 55 55 53 53 55 56 57 58 59 59 60 61 62 63 64 64 65 67 69 71 72 74 77 79 81 82 84 85 86 86 87 90 93 96 97 99 100 101 102 103 104 106 107 109 111 113 116 118 119 120 121 123 124 125 127 128 130 131 132 132 132 133 133 134 134 135 135 135 134 133 131 129 127 125 123 122 120 119 118 117 115
54 55 55 56 58 58 56 56 58 59 60 61 61 62 63 64 65 66 66 66 67 69 71 73 74 76 78 80 82 84 85 87 88 89 89 92 96 99 99 100 102 103 104 105 106 108 109 111 113 115 118 120 121 122 124 125 127 128 130 131 133 134 134 134 135 135 135 136 136 137 137 137 136 135 133 131 129 127 125 124 122 121 120 119 117
56 57 58 59 60 60 60 60 62 62 63 64 64 65 66 68 68 68 67 68 70 71 73 75 77 78 80 81 82 83 85 87 88 90 92 95 99 101 102 102 104 105 106 107 108 110 112 114 116 118 121 123 124 125 127 128 130 131 132 133 135 136 136 136 136 137 137 138 139 139 139 139 137 136 134 131 129 127 126 125 123 122 121 119 117
57 58 59 61 62 63 64 64 65 65 66 67 68 69 70 70 70 70 69 71 72 73 75 77 78 80 81 82 82 83 84 86 88 90 93 97 100 102 104 104 105 107 108 109 111 112 114 116 119 121 124 126 127 128 129 130 132 133 134 135 136 137 137 138 138 139 139 140 140 140 140 139 138 136 134 132 130 128 127 125 124 123 121 119 117
57 58 60 62 64 65 66 66 67 67 68 69 71 71 72 72 72 72 73 74 75 76 77 79 80 82 83 83 83 84 85 86 88 90 93 97 101 103 105 106 107 108 109 111 112 114 116 118 121 123 125 128 129 130 131 132 133 134 136 137 138 139 139 139 139 140 140 141 141 141 141 140 138 137 134 132 130 129 127 126 125 123 121 119 116
58 58 59 61 64 65 66 68 68 68 70 72 73 74 74 75 75 76 76 77 78 80 81 81 83 84 86 86 86 86 87 88 90 91 94 97 101 103 105 107 108 109 111 112 114 115 117 119 122 124 126 129 130 131 132 133 134 136 137 138 139 140 140 140 140 141 141 142 142 142 142 141 139 137 135 132 131 129 128 127 125 123 120 117 114
61 60 60 61 63 64 66 68 69 70 73 75 76 77 78 79 79 79 79 80 81 83 84 84 86 88 90 90 90 90 90 91 92 93 95 99 102 104 105 107 109 111 112 113 115 116 118 121 123 125 128 130 131 132 133 134 136 137 138 140 140 141 141 141 141 142 143 143 143 143 143 142 140 137 135 133 132 130 129 127 125 123 119 115 113
62 61 61 62 63 65 67 69 72 74 76 77 78 79 81 82 82 81 82 83 85 86 87 87 89 91 93 94 94 94 93 93 94 95 97 100 103 105 107 109 111 112 114 115 117 118 120 123 125 127 129 131 132 133 134 136 137 138 140 141 142 142 142 142 143 143 144 144 144 144 144 143 140 138 135 134 132 130 129 127 124 120 117 114 112
64 63 64 66 67 68 70 72 75 76 78 80 81 82 84 85 85 84 85 86 87 88 89 90 92 94 95 96 97 97 97 96 96 98 100 103 105 107 108 110 112 114 116 118 119 121 123 125 127 129 131 133 134 135 136 137 139 140 141 142 143 143 143 143 144 145 145 146 146 146 145 143 140 137 136 134 132 130 128 125 122 118 116 114 112
67 67 68 70 71 71 73 76 76 77 79 82 83 85 86 87 88 87 87 88 89 90 91 93 95 97 98 99 100 100 100 100 100 101 103 105 107 109 110 112 114 116 118 119 121 123 125 127 129 131 133 134 135 137 138 139 140 141 142 143 143 144 144 145 145 146 147 147 147 147 145 143 140 138 136 135 132 130 127 123 120 117 116 114 112
70 70 70 71 73 74 75 76 76 77 80 83 85 87 88 89 89 89 89 90 91 92 94 95 97 99 100 101 102 102 103 102 103 104 105 107 109 111 112 114 116 118 119 121 123 125 127 129 131 133 134 136 137 138 139 140 140 141 143 143 144 144 145 146 146 147 147 148 148 147 145 143 141 139 137 135 132 129 126 122 119 117 115 113 112
73 72 72 73 74 74 73 74 75 78 82 84 87 89 90 90 90 90 91 92 93 95 96 97 99 100 101 102 103 104 104 105 105 106 108 110 112 113 115 116 117 119 121 122 125 127 129 131 133 134 135 137 138 139 139 140 141 142 143 144 145 145 146 147 147 148 148 149 149 148 146 143 141 139 137 135 132 128 124 121 119 116 114 113 112
75 74 73 74 74 74 74 76 80 83 86 87 89 90 90 90 91 92 93 95 96 97 98 99 100 101 103 104 105 106 106 107 108 109 110 112 114 116 117 118 120 121 122 123 126 128 130 132 133 134 136 138 139 139 140 140 141 142 144 145 145 146 147 148 148 149 150 150 150 149 146 144 142 140 137 134 131 127 124 121 118 116 114 113 113
77 75 74 76 77 78 80 83 86 88 89 90 91 90 90 91 93 95 96 97 98 100 100 101 102 104 105 106 107 107 108 108 109 111 112 114 117 118 120 121 122 123 124 126 127 129 131 133 134 135 137 139 139 139 140 141 142 144 145 146 146 147 148 149 150 150 151 151 150 149 146 144 142 140 137 133 129 126 123 120 118 116 114 114 114
80 78 78 79 81 83 85 87 89 90 90 91 92 91 92 93 96 97 99 100 101 102 103 104 105 106 107 107 108 109 109 109 111 113 115 117 119 121 122 123 125 126 127 129 130 132 134 135 136 137 139 140 140 140 141 142 143 145 146 146 147 148 149 150 151 152 152 151 150 148 146 144 142 140 136 132 128 125 123 120 118 116 116 116 116
82 82 82 83 84 86 88 88 89 90 92 93 93 94 95 96 98 100 101 102 103 104 106 106 107 108 108 109 109 110 110 111 113 115 117 119 121 123 124 126 127 129 130 132 133 134 136 138 139 140 140 141 141 141 141 142 144 146 147 147 148 150 151 152 152 153 152 151 150 148 146 144 142 139 135 131 128 125 122 120 119 119 118 118 117
84 84 85 85 87 88 89 89 90 92 94 95 96 97 98 99 101 102 104 105 106 107 108 109 109 109 110 110 110 111 112 114 116 118 120 122 124 125 127 128 129 131 133 134 135 137 139 140 141 142 142 142 142 142 142 144 146 147 148 148 150 151 152 152 153 153 151 150 149 147 146 144 141 137 133 129 127 125 123 122 121 121 120 119 117
86 86 87 88 88 89 90 91 93 95 97 98 99 100 101 102 103 105 106 108 109 109 110 111 111 111 111 111 111 113 115 117 119 120 122 124 126 128 129 130 132 134 135 137 138 139 141 142 143 143 143 143 143 143 144 145 147 148 148 149 151 152 153 153 154 153 150 148 147 146 145 143 139 135 131 128 126 124 123 122 122 122 121 119 117
88 89 90 91 91 92 93 94 96 98 99 101 102 103 104 104 106 107 108 110 111 111 112 112 112 111 111 112 114 116 119 120 121 123 125 127 128 130 131 133 134 136 138 139 141 141 141 143 143 143 143 143 143 144 145 147 147 148 148 149 151 152 153 154 154 153 150 147 146 145 143 141 137 133 129 126 125 124 123 122 122 122 121 120 118
92 93 94 95 96 97 97 98 99 101 102 103 104 105 106 107 108 109 110 111 112 112 113 113 112 112 112 114 116 119 121 122 124 125 127 129 130 132 134 136 137 139 141 142 143 143 142 143 143 144 144 144 145 146 147 148 148 148 149 150 151 153 154 155 154 152 149 146 145 144 142 139 135 131 128 125 124 123 123 123 123 122 121 119 117
95 96 97 99 100 100 101 101 103 104 104 105 105 106 108 109 110 111 112 112 113 113 113 113 113 113 114 116 119 121 123 124 126 128 129 131 133 135 136 139 141 142 143 144 144 144 143 143 143 144 145 145 147 148 148 148 149 149 150 151 152 154 154 154 153 150 147 144 143 141 139 135 132 129 127 125 124 124 124 123 122 120 119 117 115
98 99 100 101 102 102 103 104 105 105 106 106 107 108 109 110 111 112 113 113 113 113 113 114 114 115 117 119 121 123 125 126 128 129 131 133 135 137 140 142 143 144 145 145 145 145 144 143 144 144 146 147 148 149 150 150 150 151 151 151 152 153 154 153 152 149 145 142 140 138 136 132 130 127 124 123 123 124 124 122 120 118 117 115 112
101 102 103 104 104 105 106 106 106 107 107 108 109 110 111 112 112 112 112 112 113 114 115 115 116 117 119 122 123 125 127 128 130 132 133 136 138 140 142 143 144 145 146 145 145 144 144 144 144 145 147 148 150 150 151 152 152 152 152 151 151 151 151 151 150 147 143 139 137 135 133 130 128 126 123 122 123 123 122 120 118 116 115 113 109
104 105 105 106 107 107 107 108 108 109 110 110 111 112 112 112 112 112 112 113 115 115 116 116 118 120 122 124 125 127 129 130 132 134 136 138 140 142 143 144 145 146 145 145 144 144 144 145 146 147 148 150 150 151 152 154 155 154 154 152 151 149 148 148 147 145 142 137 134 132 130 127 126 126 123 123 123 121 119 117 115 113 112 109 106
106 107 107 108 108 109 109 110 110 111 112 112 112 112 112 111 111 112 113 114 115 115 117 119 121 123 125 126 128 129 131 133 135 136 138 141 142 143 144 145 146 145 145 144 144 144 144 146 147 148 150 151 151 152 153 154 155 155 155 154 151 149 148 146 145 144 140 135 132 130 128 124 123 124 123 122 122 119 116 115 113 111 108 105 101
108 108 109 109 110 110 111 111 112 112 112 112 112 111 111 111 112 113 114 115 116 117 119 121 124 126 127 128 129 131 133 135 137 139 141 143 143 144 145 145 145 144 144 144 144 144 146 147 149 150 151 152 152 153 154 154 155 155 155 154 152 150 148 145 144 143 139 134 130 130 129 124 122 123 122 121 120 117 114 112 110 108 104 100 97
109 109 110 110 110 111 111 111 111 111 111 111 111 111 112 112 113 114 115 116 118 120 122 124 126 127 128 129 131 133 135 137 139 141 143 144 144 145 145 145 144 143 143 143 144 146 147 149 150 151 151 152 154 154 154 154 155 155 154 153 151 149 147 144 142 140 137 131 128 129 129 125 123 124 123 121 118 114 112 110 107 105 101 97 93
109 110 110 110 111 111 111 111 111 110 111 111 111 112 113 114 115 116 118 120 122 123 125 126 127 128 129 131 133 135 138 140 141 142 143 144 145 145 145 143 143 143 143 144 145 147 148 150 151 151 152 153 154 155 155 154 155 154 153 152 150 148 146 144 141 138 134 129 125 126 127 124 124 127 127 122 117 114 111 108 105 102 98 94 91
110 110 110 111 111 111 111 111 110 111 111 112 112 114 115 117 119 120 122 123 124 125 126 126 127 129 131 133 136 138 140 142 143 143 144 144 145 144 143 142 142 143 144 145 147 148 149 150 151 152 153 154 155 155 155 154 154 153 151 150 148 146 146 144 142 138 133 128 125 125 125 124 126 130 128 122 116 113 111 108 103 100 96 93 90
110 111 111 111 110 110 110 111 111 111 112 113 115 117 119 121 122 124 125 125 126 126 127 128 129 131 134 136 139 140 142 143 143 143 144 144 143 142 142 142 142 143 145 147 148 149 150 151 152 153 155 155 155 155 155 154 153 151 149 147 145 144 143 143 141 138 134 131 127 125 125 126 128 130 129 123 116 113 111 108 103 98 95 92 88
112 112 112 111 111 111 111 112 112 113 115 117 119 121 122 124 125 126 126 127 127 127 128 129 131 134 137 140 141 142 142 143 143 143 143 143 142 141 141 142 143 145 146 148 149 150 151 152 154 155 155 155 155 155 155 153 151 149 146 144 143 142 141 141 140 138 136 133 129 126 127 128 129 130 127 122 117 112 110 108 102 97 94 91 87
114 114 114 114 114 114 114 114 115 116 118 120 121 123 124 125 126 127 127 127 127 128 130 132 135 138 140 142 142 142 142 142 142 142 141 141 141 141 142 143 144 146 148 149 150 151 153 154 155 155 155 155 155 154 153 151 149 147 145 143 142 141 140 139 138 138 137 135 131 128 129 131 131 129 126 123 117 112 109 108 102 96 94 91 87
116 116 116 116 116 116 116 117 118 119 120 122 123 125 126 126 127 127 127 128 129 131 134 137 139 141 141 142 142 142 141 141 140 140 139 140 140 141 142 144 145 147 148 149 151 152 154 154 154 154 154 154 153 152 151 149 147 145 143 142 142 140 139 137 136 137 137 135 132 130 132 133 131 127 125 123 119 112 107 106 102 96 93 90 86
117 117 117 117 117 118 119 120 121 122 123 124 125 126 127 127 128 128 129 131 133 135 137 139 140 141 141 141 141 141 139 139 138 138 139 140 140 142 143 144 146 147 149 150 152 153 154 153 153 153 152 152 151 149 148 146 145 143 142 141 140 139 138 136 135 136 137 136 133 132 133 133 131 126 124 123 120 113 107 104 101 96 92 89 85
119 119 120 120 121 121 122 123 124 125 125 126 127 127 128 129 130 131 133 134 136 137 138 139 140 141 141 140 139 138 137 137 137 138 139 140 141 142 144 145 146 148 149 151 151 152 152 152 151 151 150 149 148 147 145 144 143 142 141 140 139 139 137 135 135 135 137 136 134 133 134 133 130 125 122 121 119 114 108 103 100 96 91 87 84
122 122 123 123 123 124 125 125 126 127 127 128 129 129 130 131 132 133 134 136 137 138 138 139 139 139 139 138 137 136 136 136 137 138 140 141 142 143 145 146 147 148 149 149 149 149 149 149 148 148 147 146 145 144 143 142 141 141 140 140 139 138 137 136 135 136 137 137 136 135 134 132 129 125 122 119 115 112 107 103 99 95 89 85 82
Wind_Direction
347 346 346 345 345 345 345 345 345 344 344 344 344 343 342 341 341 342 342 343 344 344 344 344 343 343 343 343 343 342 342 341 341 340 340 339 338 337 335 334 334 333 333 333 334 335 335 336 336 336 336 336 336 336 335 335 334 334 334 333 333 333 333 332 332 332 332 332 332 332 332 331 331 331 330 330 329 329 328 327 326 325 325 324 322
341 342 341 341 341 341 341 341 341 341 341 341 341 340 339 338 337 337 337 338 339 340 340 340 340 340 340 340 340 340 340 340 339 339 338 337 336 335 334 333 333 332 332 333 333 334 334 335 335 335 335 335 335 334 334 334 333 333 333 333 332 332 332 332 332 332 331 332 331 331 332 331 331 331 330 330 329 329 328 327 326 325 325 324 321
336 337 337 336 337 337 337 338 338 338 338 338 338 337 336 335 334 334 334 334 335 336 337 337 337 336 336 337 337 337 337 337 336 336 335 335 334 333 332 332 331 330 330 331 332 332 333 334 334 334 334 334 333 333 333 332 332 332 332 332 332 332 332 332 332 331 331 332 332 332 331 331 331 331 330 330 329 329 328 327 326 325 325 323 320
332 332 332 333 333 332 333 334 335 335 335 334 334 334 333 333 332 331 331 331 331 332 333 334 334 334 334 334 334 334 334 334 334 333 333 333 332 332 331 330 329 329 329 330 331 331 332 333 333 333 333 333 332 332 332 332 331 331 331 331 331 332 332 331 331 331 332 332 332 332 331 331 331 331 330 330 329 328 327 326 326 325 324 322 320
327 327 328 329 329 329 330 330 331 331 331 331 331 331 330 330 330 329 328 328 328 329 330 331 331 332 332 332 332 332 332 332 332 331 331 331 331 330 329 328 328 328 328 329 330 331 331 332 332 332 332 332 332 331 331 331 330 330 330 331 331 331 331 331 331 331 331 332 332 332 332 331 331 331 330 330 329 328 327 326 325 324 323 322 320
323 322 324 325 326 326 326 327 328 328 328 328 328 328 328 327 327 327 327 326 326 327 328 329 329 330 330 330 330 331 331 331 331 330 330 330 330 329 328 328 327 327 327 328 329 330 330 331 331 331 331 331 330 330 329 329 329 329 330 330 331 331 330 331 331 331 331 331 331 331 331 331 331 330 330 329 328 328 327 326 325 324 323 322 321
320 319 319 320 321 322 323 325 326 327 327 327 326 326 326 325 325 326 325 324 324 324 326 327 327 328 328 328 329 329 329 329 329 329 329 329 329 328 328 327 326 326 326 327 328 328 329 330 330 330 330 330 329 329 328 328 328 329 329 330 330 330 330 330 331 331 331 331 331 331 331 331 330 330 329 329 328 327 327 326 325 324 324 322 321
314 315 315 315 317 318 319 322 324 326 327 327 327 326 325 324 323 324 323 322 322 322 323 324 325 325 326 326 327 327 328 328 328 328 328 328 328 328 327 326 326 326 326 326 327 327 328 328 329 329 329 329 329 328 327 327 328 328 329 329 330 330 330 330 330 330 331 331 331 331 331 330 330 329 329 328 328 327 326 326 325 324 324 323 321
309 310 311 311 312 313 315 318 321 323 325 325 326 326 325 323 322 321 321 320 319 320 321 321 322 323 323 323 324 325 326 326 326 326 327 327 328 327 327 326 326 326 325 326 326 327 327 328 328 329 329 329 328 328 327 327 327 328 328 329 330 330 330 330 330 330 330 330 330 330 330 330 330 329 328 328 327 327 326 326 325 324 324 323 322
306 306 307 308 308 308 310 314 317 319 321 322 323 324 324 323 321 320 319 318 317 318 319 319 320 320 320 321 321 322 323 324 325 325 326 326 327 326 326 325 325 325 325 325 326 326 327 327 328 328 329 329 328 328 328 328 328 328 329 329 329 330 329 329 329 329 329 330 330 330 330 329 329 329 328 327 327 327 326 326 325 325 324 323 322
303 303 304 305 305 305 306 309 312 316 318 319 320 321 322 321 321 320 318 317 316 317 317 317 318 318 318 318 319 320 321 322 323 324 325 326 326 326 325 324 324 324 325 325 326 326 327 327 328 328 328 328 328 328 328 328 328 328 329 329 329 329 329 329 329 329 329 329 329 329 329 329 329 328 328 327 327 326 326 326 325 325 324 324 323
300 300 301 302 302 302 302 305 309 312 315 316 317 318 319 319 319 319 318 316 315 316 316 316 316 316 316 317 317 318 319 320 322 323 324 325 325 325 324 323 324 324 324 325 326 326 327 327 327 328 327 327 327 327 327 327 327 328 328 329 329 328 328 328 328 328 328 329 329 329 329 329 328 328 327 327 327 326 326 326 326 325 324 323 322
298 298 299 300 301 301 301 302 306 309 311 313 314 315 316 316 316 317 317 316 315 315 315 315 315 315 315 316 316 317 318 319 320 321 323 323 323 323 323 322 322 323 323 324 325 326 327 327 327 327 327 326 326 326 326 326 327 327 328 328 328 328 327 327 328 328 328 328 328 329 329 328 328 328 327 327 327 327 326 326 326 325 324 323 322
297 297 298 299 299 299 298 299 302 304 307 309 311 312 314 314 314 315 316 315 314 314 314 314 314 314 314 315 315 316 316 317 318 319 321 322 322 322 322 321 321 321 321 322 324 325 325 326 326 326 326 326 326 326 326 326 326 326 327 327 327 327 327 327 327 328 328 328 328 329 329 328 328 328 327 327 327 327 327 326 325 325 324 323 322
295 296 296 297 297 297 296 296 298 301 304 307 309 311 312 312 313 313 314 314 313 313 313 313 313 313 314 314 315 315 316 317 317 318 320 321 321 321 321 321 320 320 320 321 322 323 324 324 324 325 325 325 325 325 325 325 325 326 326 327 327 327 327 327 327 327 328 328 328 328 328 328 328 328 328 327 327 327 327 326 325 325 324 323 322
295 295 295 296 296 296 295 295 296 299 302 305 307 309 310 310 311 312 312 312 312 313 312 312 313 313 314 315 315 315 316 317 317 318 320 320 321 321 321 320 320 319 320 321 322 322 323 323 323 324 324 325 325 325 325 325 325 326 326 326 326 326 326 327 327 327 328 328 328 328 328 328 328 327 327 327 327 327 326 326 325 324 323 322 321
293 294 295 294 295 295 295 295 296 298 301 303 304 306 307 308 309 310 311 311 312 312 312 312 313 313 314 315 315 316 317 317 318 319 320 320 320 321 320 319 319 319 319 320 321 321 322 322 322 323 323 324 324 325 325 325 325 326 326 326 326 326 326 326 327 327 327 327 328 328 328 327 327 327 327 327 327 326 326 325 325 324 322 321 320
291 292 293 293 293 294 294 295 296 297 299 300 301 303 304 305 307 309 309 310 311 312 312 313 313 313 314 314 315 316 316 317 318 319 319 320 320 320 319 319 319 319 319 320 321 321 321 321 321 322 323 324 324 325 325 325 326 326 326 325 325 326 326 326 326 327 327 327 327 327 327 327 327 327 327 327 326 326 325 324 323 322 321 320 319
289 290 290 291 292 292 292 293 295 295 296 297 299 301 303 304 306 307 307 308 309 310 312 314 314 314 313 314 314 315 316 316 317 317 318 319 319 319 318 318 318 318 319 320 320 321 321 321 321 322 323 323 324 325 325 325 325 325 325 325 325 325 326 326 326 326 327 327 327 327 326 326 326 326 326 326 325 325 324 323 322 321 320 319 318
287 287 287 288 289 290 291 291 292 294 295 296 297 300 301 303 304 305 306 307 308 309 310 312 313 314 313 313 314 314 315 315 316 316 316 317 318 318 317 317 317 318 319 319 320 320 321 321 321 322 322 323 324 324 324 325 324 324 324 324 325 325 325 325 325 326 326 326 326 326 326 326 326 326 326 325 325 324 323 322 321 320 320 319 318
287 286 286 286 286 287 288 289 291 292 293 295 297 299 300 301 302 303 304 305 306 307 308 309 311 312 313 313 314 314 314 314 315 315 315 316 316 316 316 316 317 317 318 319 319 320 320 320 320 321 322 322 323 323 324 324 324 323 324 324 324 324 324 325 325 325 325 325 325 325 325 325 325 325 325 325 324 323 323 322 321 320 319 318 317
287 286 285 284 285 286 287 288 290 291 293 295 296 297 299 300 301 302 303 304 305 306 307 308 309 310 311 312 313 313 313 314 314 314 314 314 315 315 315 315 316 317 317 318 319 319 319 319 320 320 321 322 322 323 323 323 323 323 323 324 324 324 324 324 324 324 324 324 324 324 325 325 325 325 325 324 324 323 322 321 320 319 318 317 316
287 285 284 283 285 286 287 288 289 291 293 294 295 297 298 299 301 302 303 304 304 305 306 307 308 309 309 310 311 312 313 313 313 313 312 313 313 314 314 315 315 316 316 317 318 318 319 319 319 320 321 321 322 322 322 322 322 323 323 323 323 323 323 323 324 324 324 324 324 324 324 325 325 324 324 323 323 322 322 321 319 318 317 316 315
285 285 284 285 286 287 287 288 289 291 292 293 295 296 298 300 301 302 303 303 303 304 305 306 307 308 308 309 309 310 311 312 312 312 311 312 313 313 314 314 315 315 316 317 317 318 318 318 319 320 320 321 321 322 322 322 322 322 322 323 323 323 323 323 323 323 323 323 324 324 324 324 324 323 323 323 323 322 321 320 318 317 316 316 315
285 285 286 286 287 287 287 288 290 290 291 292 294 296 298 300 301 302 302 302 303 303 305 305 306 307 307 308 308 309 310 311 311 311 311 311 312 313 313 314 315 315 316 316 317 317 318 318 319 319 320 321 321 321 321 321 322 322 322 322 322 322 322 322 322 322 323 323 323 323 324 324 323 323 323 323 322 322 320 319 318 317 316 315 313
284 286 287 288 288 288 288 288 289 289 290 291 293 296 298 299 301 301 301 302 302 303 304 304 305 306 307 307 308 309 309 310 310 310 310 310 311 312 313 314 314 315 316 316 316 317 318 318 318 319 320 320 321 321 321 321 321 321 321 321 321 321 321 322 322 322 322 322 323 323 323 323 323 323 323 323 322 321 320 318 317 317 316 314 312
284 286 288 288 288 287 287 287 286 287 288 290 293 295 298 299 300 300 301 301 302 302 303 303 304 305 307 308 308 309 309 309 309 309 309 309 310 311 312 313 314 315 315 316 316 317 317 318 318 319 319 320 320 320 320 320 320 321 321 321 321 321 321 321 321 321 322 322 322 323 323 323 323 323 323 322 321 320 319 318 317 317 315 313 311
284 285 285 285 284 284 284 284 284 286 288 291 293 295 297 298 299 299 300 301 301 301 301 302 303 305 306 308 308 308 308 308 308 308 308 308 309 310 311 313 314 315 315 315 316 316 317 317 318 318 319 319 319 319 319 319 320 320 320 320 320 320 321 321 321 321 321 322 323 323 323 323 323 322 322 322 321 320 319 318 317 316 315 313 311
283 283 282 282 282 283 284 284 285 287 289 291 293 295 296 297 298 299 299 299 299 299 300 301 302 304 306 307 308 308 308 308 308 308 308 308 308 309 311 312 314 315 315 315 315 316 316 316 317 317 318 318 318 318 319 319 319 320 319 320 320 320 320 320 320 321 321 322 323 323 323 323 322 322 322 321 320 319 319 318 317 316 314 313 312
282 281 281 282 283 285 286 286 287 288 289 291 292 294 295 297 298 298 298 298 298 298 299 300 301 303 305 306 307 308 307 307 307 307 307 307 308 309 310 312 313 314 315 315 315 315 315 316 316 317 317 317 318 318 318 319 319 319 319 319 320 320 320 320 320 321 321 322 323 323 323 322 322 322 322 321 320 319 319 318 317 316 316 315 313
281 281 281 283 284 286 286 287 287 288 289 290 292 293 295 296 296 297 297 297 297 298 299 300 301 302 304 305 307 307 307 307 306 307 307 307 308 309 310 311 313 313 314 315 315 315 315 315 316 316 317 317 317 318 318 318 318 319 319 319 319 320 320 320 320 321 321 322 323 323 323 322 322 322 322 321 321 320 320 319 319 318 317 316 314
280 281 282 284 285 285 286 287 287 288 289 290 291 293 294 294 295 295 296 296 297 298 299 300 301 302 303 305 306 307 306 306 306 306 306 307 308 309 310 311 312 313 313 314 314 314 315 315 315 316 316 317 317 318 318 318 318 318 318 319 319 320 320 320 320 321 321 322 322 323 322 322 322 322 322 321 321 321 321 321 320 319 317 316 315
280 281 282 283 284 284 285 286 288 289 289 290 291 292 293 293 294 295 295 296 297 297 299 300 301 302 303 305 306 306 305 305 306 306 306 307 308 309 310 311 311 312 313 313 313 314 314 314 315 315 316 316 317 317 317 317 318 318 318 318 319 319 320 320 320 321 321 322 322 322 322 321 321 322 322 322 322 322 322 321 320 319 317 316 315
279 280 281 282 283 284 285 287 288 289 290 290 291 291 292 293 294 295 295 296 297 297 299 300 301 302 304 304 305 305 305 305 305 306 306 307 308 309 310 311 311 312 312 312 312 313 313 314 314 315 315 316 316 317 317 317 317 317 318 318 318 319 319 320 320 321 321 322 322 322 322 321 321 322 322 322 323 322 322 322 321 319 318 317 316
279 279 280 281 282 284 285 286 288 289 289 290 290 291 292 293 294 294 295 296 297 298 299 301 302 302 303 304 304 304 304 305 305 306 307 307 308 309 310 310 311 311 311 311 312 312 313 313 314 314 315 315 316 316 316 317 317 317 317 317 318 318 319 320 320 321 321 321 322 322 321 321 321 322 323 323 323 323 323 323 321 319 318 317 316
278 279 280 281 282 283 285 286 287 288 289 289 290 291 292 292 293 294 295 296 298 299 300 301 302 302 302 302 303 303 304 305 305 306 307 307 308 309 309 309 310 310 310 311 311 312 312 313 314 314 315 315 315 316 316 316 316 316 317 317 317 319 319 320 320 321 321 321 322 322 321 321 322 323 323 324 324 324 324 322 320 319 318 317 317
279 279 280 281 282 283 285 286 287 287 288 289 290 290 291 292 293 294 295 297 298 299 300 301 301 301 301 301 302 303 304 304 305 306 307 307 308 308 308 309 309 309 310 310 311 312 312 313 313 314 314 314 315 315 315 316 316 316 316 317 318 319 319 320 320 320 320 321 321 321 321 322 323 323 324 325 325 325 324 322 320 319 318 317 317
279 280 281 282 283 284 285 285 286 287 288 288 289 290 291 292 293 295 296 298 298 299 300 300 300 300 301 301 302 303 304 304 305 306 306 307 307 307 308 308 308 309 310 310 311 311 312 312 313 313 314 314 314 315 315 315 315 316 316 317 317 318 319 319 319 320 320 321 321 322 322 322 323 325 325 325 326 325 323 321 320 319 318 318 318
279 280 281 282 283 284 284 285 286 287 288 289 290 291 292 293 294 296 297 297 298 299 299 299 300 300 301 301 302 303 303 304 304 305 305 306 306 307 307 307 308 309 309 310 311 311 312 312 312 313 313 313 314 314 315 315 315 315 316 317 317 318 318 318 319 320 320 321 322 322 322 323 325 326 326 326 326 325 323 321 320 319 319 319 319
279 280 281 282 283 284 284 286 287 287 288 289 291 292 293 294 295 295 296 297 297 298 298 298 299 300 301 301 302 302 303 303 304 305 305 305 306 306 307 307 308 309 309 310 310 311 311 311 312 312 313 313 313 314 314 314 315 315 316 317 317 318 318 318 319 320 321 322 322 323 322 324 326 326 326 326 326 325 322 321 321 320 320 320 320
279 280 281 282 283 284 285 286 287 288 289 290 291 292 292 293 294 295 295 296 296 296 297 298 299 300 300 301 301 302 302 303 304 304 304 305 305 306 306 307 308 308 309 309 310 310 310 311 311 312 312 313 313 313 313 314 314 315 316 317 317 318 318 319 319 320 322 323 323 323 324 325 327 327 326 326 326 324 322 321 322 321 320 320 321
279 280 281 282 283 284 286 287 288 289 290 291 291 291 292 293 293 294 294 294 294 295 296 298 299 299 300 300 301 301 302 303 303 304 304 304 305 305 306 307 307 308 308 309 309 309 310 310 311 311 312 312 312 312 313 313 314 315 316 317 317 318 318 319 320 320 322 323 324 324 325 326 327 328 326 326 326 324 322 322 322 322 321 321 322
279 280 282 283 284 285 286 287 288 289 290 290 291 291 291 291 292 292 292 293 294 295 296 297 298 299 299 300 300 301 302 302 302 303 303 304 304 305 305 306 307 307 308 308 308 309 309 310 310 311 311 311 311 312 312 313 314 315 316 317 317 318 318 319 320 321 322 323 324 326 326 327 329 329 327 326 326 325 323 323 323 323 322 323 323
279 281 282 283 284 286 287 288 288 289 289 289 289 289 289 290 290 291 292 293 294 295 296 297 298 298 299 299 300 300 301 301 302 302 303 303 304 304 305 306 306 307 307 307 308 308 309 309 310 310 310 310 311 311 312 313 314 315 316 317 317 318 319 319 320 321 322 324 326 327 327 328 330 330 328 327 326 325 324 324 324 324 324 324 324
279 281 282 283 284 285 286 286 287 287 287 287 287 288 288 289 290 291 292 293 294 295 296 297 297 298 298 299 299 300 300 301 301 302 302 302 303 304 305 305 306 306 306 307 307 308 308 309 309 309 309 310 310 311 312 314 315 316 316 317 317 318 319 319 321 322 323 325 327 328 328 329 330 330 328 327 327 326 325 324 325 325 325 325 325
279 280 281 282 283 283 284 284 284 285 285 286 286 287 288 289 290 291 292 293 294 295 295 296 297 297 297 298 298 299 300 300 301 301 301 302 303 304 304 305 305 305 306 306 307 308 308 308 309 309 309 310 311 312 313 314 315 315 316 317 317 318 319 320 321 322 324 326 328 329 329 330 331 330 329 327 327 327 326 325 326 327 326 326 326
278 279 280 281 281 282 282 282 283 283 284 284 285 286 287 289 290 291 292 293 294 294 295 295 296 296 297 297 298 299 299 300 300 300 301 302 303 303 304 304 305 305 306 306 307 307 308 308 308 308 309 310 311 312 313 314 315 315 316 317 317 318 320 321 322 323 324 326 328 329 330 330 331 331 329 328 328 328 327 326 326 327 327 327 327
277 278 279 279 280 280 281 281 281 282 283 284 285 286 287 288 289 290 292 292 293 294 294 295 295 296 296 297 297 298 299 299 299 300 301 302 302 303 303 304 304 305 306 306 307 307 307 307 308 309 309 311 312 313 313 314 314 315 316 317 318 319 320 321 322 323 324 326 328 329 330 330 331 331 330 329 328 328 328 326 327 328 328 327 327
276 277 277 278 278 279 279 280 281 282 283 284 285 286 287 288 289 290 291 292 293 293 294 294 294 295 295 296 297 298 298 299 299 300 301 301 302 303 303 303 304 305 305 306 306 306 306 307 308 309 310 311 312 313 313 314 314 315 316 317 318 319 320 321 323 324 325 326 328 329 330 330 331 331 331 330 328 328 328 327 327 328 328 328 328
274 275 276 276 277 278 279 280 281 282 283 284 285 286 287 288 289 290 291 291 292 292 293 294 294 294 295 296 297 297 298 299 299 300 300 301 302 302 303 303 304 304 305 305 305 306 306 307 308 309 310 311 312 312 313 313 314 315 317 318 318 319 320 322 323 324 325 326 328 329 330 330 331 331 331 330 329 328 328 328 327 328 328 328 328
273 274 275 276 277 278 279 280 281 282 283 284 285 286 287 288 289 289 290 291 291 292 293 293 293 294 295 296 297 297 298 298 299 299 300 300 301 302 302 303 303 304 304 305 305 306 307 308 309 309 310 311 311 312 313 314 315 316 317 318 318 319 320 322 324 325 325 326 327 329 330 330 331 331 330 330 329 329 328 328 328 328 328 328 328
Height
10898 10896 10895 10894 10892 10891 10890 10888 10887 10885 10883 10882 10880 10878 10876 10874 10872 10871 10869 10867 10865 10863 10860 10859 10857 10855 10853 10851 10848 10845 10843 10840 10837 10835 10832 10829 10826 10823 10821 10818 10815 10812 10808 10805 10802 10798 10795 10791 10787 10782 10778 10774 10770 10766 10761 10757 10752 10748 10743 10738 10733 10728 10722 10718 10713 10707 10702 10697 10691 10686 10681 10674 10668 10663 10657 10651 10645 10639 10635 10630 10624 10617 10611 10604 10597
10896 10895 10893 10892 10891 10889 10888 10886 10885 10883 10882 10880 10878 10876 10874 10872 10870 10868 10866 10864 10862 10860 10858 10856 10854 10852 10849 10847 10845 10842 10839 10837 10834 10831 10829 10826 10823 10820 10817 10814 10811 10807 10804 10800 10797 10793 10789 10785 10781 10777 10773 10768 10764 10759 10755 10750 10746 10741 10736 10731 10726 10721 10715 10710 10705 10700 10695 10690 10684 10678 10673 10667 10661 10655 10649 10643 10637 10631 10626 10621 10617 10612 10607 10600 10592
10894 10893 10892 10891 10889 10888 10886 10885 10883 10881 10880 10878 10876 10875 10873 10870 10868 10866 10864 10862 10860 10857 10855 10853 10851 10848 10846 10844 10841 10839 10836 10833 10831 10828 10825 10823 10819 10816 10813 10810 10807 10803 10800 10796 10792 10789 10785 10781 10777 10772 10768 10763 10758 10754 10749 10744 10739 10734 10729 10723 10718 10713 10708 10702 10697 10692 10687 10681 10675 10669 10663 10658 10652 10647 10641 10635 10629 10623 10617 10611 10607 10603 10601 10596 10588
10893 10892 10890 10889 10887 10886 10884 10883 10881 10879 10878 10876 10874 10872 10870 10868 10866 10864 10861 10859 10857 10855 10852 10850 10847 10845 10842 10840 10837 10835 10832 10829 10827 10824 10822 10819 10815 10812 10809 10805 10802 10798 10795 10792 10788 10784 10780 10776 10772 10767 10763 10758 10753 10748 10743 10737 10732 10726 10721 10716 10710 10705 10700 10694 10689 10682 10677 10671 10665 10660 10654 10648 10642 10637 10631 10626 10620 10615 10609 10603 10598 10594 10591 10588 10582
10891 10890 10888 10887 10885 10884 10882 10880 10879 10877 10876 10874 10872 10870 10868 10865 10863 10861 10859 10856 10854 10851 10849 10846 10844 10841 10839 10836 10833 10831 10828 10825 10822 10820 10817 10814 10810 10807 10804 10800 10796 10793 10789 10786 10782 10778 10774 10770 10766 10762 10757 10752 10747 10742 10737 10732 10726 10721 10715 10709 10704 10698 10692 10686 10680 10674 10668 10662 10656 10650 10644 10638 10632 10626 10620 10615 10610 10604 10600 10595 10590 10585 10581 10577 10572
10888 10887 10886 10884 10883 10881 10880 10878 10876 10874 10873 10871 10869 10867 10865 10862 10860 10858 10855 10853 10850 10848 10845 10843 10840 10837 10835 10832 10829 10826 10824 10821 10817 10814 10811 10808 10805 10802 10798 10794 10790 10786 10783 10780 10776 10771 10767 10763 10759 10755 10751 10746 10742 10737 10732 10726 10721 10715 10709 10703 10697 10691 10685 10679 10673 10666 10660 10653 10647 10640 10633 10627 10621 10615 10610 10604 10599 10594 10589 10584 10579 10575 10572 10567 10562
10886 10884 10883 10882 10880 10879 10877 10875 10873 10871 10869 10867 10865 10864 10862 10859 10857 10854 10852 10849 10846 10844 10842 10839 10836 10833 10830 10828 10825 10822 10819 10816 10812 10809 10806 10803 10800 10797 10793 10789 10785 10781 10776 10773 10769 10765 10761 10757 10753 10749 10744 10740 10735 10730 10725 10719 10713 10707 10701 10695 10689 10683 10676 10670 10663 10657 10650 10644 10638 10631 10625 10618 10611 10605 10599 10594 10589 10583 10578 10572 10567 10563 10559 10555 10551
10883 10881 10880 10878 10877 10875 10874 10872 10870 10868 10866 10864 10862 10860 10858 10855 10853 10851 10848 10845 10842 10840 10837 10835 10832 10829 10826 10823 10820 10817 10814 10810 10807 10804 10801 10797 10794 10791 10787 10783 10779 10774 10770 10766 10762 10758 10754 10750 10746 10742 10738 10733 10728 10722 10717 10711 10705 10698 10692 10686 10680 10673 10666 10659 10652 10646 10640 10634 10628 10622 10615 10608 10602 10595 10589 10583 10578 10573 10567 10561 10556 10551 10547 10542 10538
10880 10878 10877 10875 10874 10872 10870 10869 10867 10865 10862 10860 10858 10856 10855 10852 10849 10847 10844 10841 10838 10836 10833 10830 10827 10824 10821 10817 10814 10811 10808 10805 10802 10799 10795 10792 10788 10785 10781 10776 10772 10768 10764 10760 10756 10751 10747 10743 10739 10734 10730 10725 10720 10714 10708 10702 10695 10689 10682 10676 10669 10662 10655 10648 10642 10636 10629 10623 10617 10611 10604 10597 10591 10584 10578 10572 10566 10561 10556 10550 10544 10540 10535 10530 10525
10877 10875 10873 10872 10870 10868 10867 10865 10863 10861 10859 10856 10854 10852 10850 10849 10846 10843 10840 10837 10834 10831 10829 10826 10823 10819 10816 10812 10809 10806 10803 10800 10796 10793 10789 10786 10782 10778 10774 10769 10765 10761 10758 10753 10749 10744 10739 10735 10730 10725 10720 10715 10710 10704 10698 10692 10685 10678 10672 10665 10658 10652 10646 10639 10633 10627 10620 10614 10607 10601 10594 10588 10581 10574 10567 10560 10554 10548 10543 10537 10531 10526 10521 10516 10511
10873 10872 10870 10868 10866 10864 10863 10861 10859 10857 10855 10853 10850 10848 10846 10844 10842 10840 10837 10833 10829 10827 10824 10821 10818 10815 10811 10808 10804 10801 10798 10794 10790 10786 10782 10779 10775 10771 10767 10762 10758 10754 10750 10746 10741 10737 10731 10726 10720 10715 10710 10705 10699 10693 10688 10682 10675 10668 10662 10655 10649 10643 10637 10631 10625 10618 10612 10605 10598 10591 10585 10578 10571 10564 10557 10550 10543 10536 10530 10524 10517 10512 10506 10501 10497
10869 10868 10866 10864 10862 10860 10858 10857 10855 10853 10851 10849 10846 10844 10842 10840 10838 10836 10833 10829 10825 10822 10819 10816 10813 10810 10806 10803 10799 10795 10792 10788 10784 10780 10776 10772 10768 10764 10760 10755 10750 10746 10742 10738 10733 10728 10723 10717 10711 10706 10700 10695 10689 10684 10678 10672 10665 10659 10652 10646 10640 10634 10628 10622 10615 10609 10602 10595 10588 10581 10574 10567 10560 10553 10546 10539 10532 10525 10518 10511 10505 10499 10493 10488 10484
10865 10864 10862 10860 10858 10856 10854 10852 10850 10848 10847 10845 10843 10840 10838 10836 10834 10831 10829 10825 10821 10818 10814 10811 10807 10804 10800 10797 10793 10789 10786 10782 10778 10774 10770 10765 10761 10756 10751 10746 10741 10737 10733 10729 10724 10719 10714 10708 10703 10697 10692 10687 10681 10675 10668 10662 10655 10649 10643 10637 10630 10624 10617 10611 10605 10598 10591 10584 10577 10569 10562 10555 10548 10541 10534 10528 10520 10513 10506 10499 10493 10487 10481 10476 10471
10861 10859 10857 10855 10854 10852 10850 10848 10846 10845 10843 10841 10838 10836 10834 10831 10829 10826 10824 10821 10817 10813 10810 10806 10802 10798 10794 10791 10787 10782 10779 10776 10772 10767 10762 10757 10752 10748 10743 10737 10732 10727 10723 10719 10714 10709 10705 10700 10694 10689 10684 10679 10673 10666 10660 10653 10646 10640 10634 10627 10620 10613 10606 10599 10593 10586 10579 10571 10564 10556 10549 10542 10535 10528 10520 10513 10505 10498 10491 10485 10479 10474 10468 10462 10457
10857 10855 10853 10852 10850 10848 10846 10844 10842 10840 10838 10835 10833 10830 10828 10825 10823 10821 10819 10816 10813 10809 10805 10802 10797 10793 10789 10784 10780 10775 10770 10767 10764 10760 10755 10749 10743 10738 10733 10728 10723 10718 10714 10710 10705 10701 10696 10691 10686 10681 10675 10670 10664 10658 10651 10644 10637 10630 10624 10617 10609 10602 10594 10587 10580 10572 10564 10556 10549 10542 10534 10527 10520 10512 10505 10497 10490 10482 10475 10469 10463 10457 10452 10446 10440
10852 10851 10849 10847 10845 10843 10841 10839 10837 10835 10832 10830 10827 10825 10822 10820 10817 10816 10813 10811 10808 10804 10800 10797 10793 10788 10783 10778 10773 10768 10762 10757 10754 10751 10746 10741 10735 10730 10725 10719 10714 10710 10706 10701 10697 10692 10688 10683 10678 10672 10666 10661 10655 10649 10642 10634 10626 10619 10611 10604 10597 10589 10581 10574 10566 10558 10550 10542 10535 10528 10521 10513 10506 10499 10491 10483 10475 10468 10460 10454 10447 10441 10435 10429 10424
10847 10846 10844 10842 10840 10837 10835 10832 10830 10829 10826 10824 10821 10819 10817 10814 10812 10810 10808 10805 10802 10799 10795 10791 10788 10783 10779 10773 10768 10762 10756 10749 10744 10740 10737 10733 10727 10722 10718 10713 10706 10702 10698 10693 10688 10684 10679 10674 10669 10663 10657 10651 10645 10638 10631 10622 10614 10606 10599 10592 10584 10577 10569 10562 10554 10546 10538 10530 10523 10516 10509 10501 10493 10485 10477 10469 10461 10453 10447 10440 10433 10427 10421 10416 10411
10842 10841 10839 10837 10835 10832 10830 10827 10825 10823 10821 10819 10816 10814 10811 10809 10806 10804 10801 10799 10796 10793 10789 10785 10782 10778 10774 10769 10764 10759 10753 10747 10740 10733 10728 10724 10718 10712 10708 10705 10698 10693 10689 10684 10679 10674 10669 10663 10657 10652 10646 10639 10632 10626 10618 10609 10601 10593 10587 10581 10574 10566 10559 10551 10543 10535 10526 10518 10511 10503 10496 10488 10480 10472 10464 10456 10449 10442 10436 10429 10422 10416 10411 10405 10399
10838 10836 10834 10832 10830 10827 10825 10822 10820 10818 10815 10813 10810 10808 10805 10803 10800 10798 10795 10793 10790 10787 10783 10779 10776 10772 10768 10764 10760 10756 10751 10745 10739 10732 10725 10718 10712 10705 10699 10696 10691 10685 10680 10676 10671 10665 10659 10652 10645 10639 10633 10626 10620 10613 10606 10598 10590 10583 10577 10571 10564 10556 10548 10540 10532 10523 10515 10507 10500 10493 10486 10478 10470 10463 10455 10447 10439 10431 10425 10418 10412 10405 10399 10392 10386
10832 10831 10830 10828 10825 10822 10819 10816 10814 10812 10810 10806 10804 10801 10799 10796 10794 10791 10789 10786 10783 10780 10777 10773 10770 10766 10762 10759 10755 10750 10746 10741 10736 10731 10724 10716 10710 10702 10694 10689 10685 10680 10674 10669 10664 10658 10652 10644 10637 10631 10624 10617 10611 10604 10597 10590 10582 10574 10567 10561 10553 10545 10538 10530 10522 10514 10506 10499 10492 10485 10476 10469 10461 10452 10444 10436 10428 10421 10415 10408 10401 10394 10387 10380 10373
10826 10825 10824 10822 10820 10817 10814 10811 10808 10806 10803 10800 10797 10795 10792 10790 10787 10785 10782 10779 10776 10773 10770 10766 10763 10759 10756 10752 10749 10744 10740 10736 10732 10727 10722 10715 10708 10701 10693 10684 10679 10674 10669 10664 10658 10652 10646 10638 10631 10625 10618 10611 10604 10597 10590 10583 10575 10567 10559 10551 10544 10536 10528 10520 10513 10505 10497 10489 10482 10474 10465 10458 10450 10442 10433 10425 10418 10411 10404 10397 10389 10381 10374 10368 10361
10819 10818 10817 10816 10814 10811 10807 10804 10801 10799 10796 10794 10791 10788 10786 10783 10781 10778 10775 10772 10769 10765 10762 10759 10755 10751 10748 10745 10741 10738 10734 10730 10726 10721 10716 10710 10703 10697 10689 10681 10674 10668 10663 10658 10652 10646 10640 10632 10625 10618 10611 10604 10597 10590 10582 10574 10566 10558 10549 10541 10534 10526 10519 10511 10502 10494 10486 10478 10471 10463 10455 10447 10439 10430 10421 10413 10405 10398 10391 10383 10375 10368 10362 10356 10350
10813 10812 10810 10809 10807 10805 10801 10797 10794 10792 10788 10786 10784 10781 10779 10776 10774 10771 10768 10765 10761 10758 10755 10751 10747 10744 10740 10737 10733 10729 10726 10722 10718 10714 10709 10703 10697 10690 10683 10675 10667 10660 10655 10650 10644 10639 10632 10624 10617 10610 10603 10595 10587 10580 10573 10565 10556 10548 10540 10531 10523 10516 10508 10500 10492 10483 10475 10468 10460 10452 10443 10435 10426 10418 10410 10402 10394 10387 10379 10371 10363 10356 10350 10345 10338
10807 10806 10804 10801 10799 10798 10795 10791 10788 10785 10781 10779 10777 10774 10771 10768 10766 10764 10760 10757 10754 10750 10747 10743 10740 10736 10732 10728 10725 10721 10717 10713 10709 10705 10700 10694 10688 10682 10674 10667 10660 10652 10645 10639 10634 10629 10622 10614 10608 10601 10593 10586 10578 10570 10563 10555 10547 10538 10530 10522 10513 10505 10498 10490 10481 10473 10464 10455 10447 10439 10431 10423 10415 10406 10398 10390 10383 10376 10367 10359 10350 10343 10336 10330 10323
10800 10799 10797 10794 10792 10790 10788 10784 10781 10778 10775 10772 10770 10767 10764 10761 10758 10756 10753 10750 10746 10743 10739 10735 10732 10728 10724 10720 10716 10712 10708 10704 10700 10695 10690 10685 10679 10673 10666 10659 10653 10645 10638 10631 10624 10619 10612 10604 10597 10591 10583 10576 10568 10560 10553 10546 10537 10528 10520 10512 10503 10495 10487 10479 10469 10460 10452 10443 10435 10427 10420 10412 10403 10394 10385 10377 10369 10362 10353 10345 10337 10329 10322 10314 10306
10793 10792 10790 10787 10785 10782 10780 10777 10774 10771 10768 10765 10762 10759 10756 10754 10751 10748 10745 10742 10739 10735 10731 10727 10724 10720 10716 10711 10707 10703 10699 10694 10690 10685 10680 10674 10669 10664 10658 10652 10645 10637 10630 10622 10614 10608 10601 10593 10586 10579 10573 10566 10558 10550 10543 10535 10528 10519 10511 10503 10495 10486 10477 10467 10458 10449 10441 10432 10424 10416 10408 10399 10389 10379 10370 10363 10356 10348 10339 10330 10323 10316 10309 10299 10289
10786 10785 10783 10780 10777 10775 10772 10770 10766 10763 10760 10758 10755 10752 10749 10746 10744 10740 10737 10734 10730 10726 10723 10719 10715 10711 10707 10702 10698 10694 10689 10684 10680 10674 10670 10664 10659 10654 10649 10644 10638 10631 10623 10614 10605 10598 10592 10584 10577 10570 10563 10556 10549 10541 10533 10526 10519 10511 10502 10494 10486 10476 10467 10457 10446 10438 10430 10421 10412 10403 10393 10384 10374 10365 10356 10349 10341 10333 10324 10316 10309 10302 10293 10281 10271
10779 10778 10776 10773 10770 10767 10765 10762 10758 10754 10752 10750 10747 10744 10742 10739 10736 10732 10729 10725 10722 10718 10714 10710 10706 10702 10698 10693 10688 10684 10679 10674 10669 10664 10659 10654 10649 10644 10639 10634 10629 10623 10616 10608 10598 10589 10583 10576 10569 10563 10556 10548 10541 10533 10525 10518 10510 10502 10493 10484 10476 10466 10456 10446 10435 10425 10416 10407 10398 10389 10379 10369 10359 10350 10342 10335 10326 10317 10308 10300 10292 10285 10275 10263 10252
10770 10769 10768 10765 10762 10759 10757 10753 10750 10746 10744 10742 10739 10736 10734 10731 10728 10724 10721 10717 10713 10709 10705 10702 10697 10693 10688 10684 10679 10674 10669 10664 10659 10654 10648 10643 10639 10634 10629 10623 10618 10612 10606 10600 10590 10580 10574 10567 10560 10555 10549 10540 10533 10525 10516 10507 10499 10491 10482 10473 10465 10455 10445 10434 10422 10412 10402 10394 10385 10375 10364 10353 10343 10335 10328 10321 10311 10301 10292 10284 10275 10267 10256 10244 10232
10762 10761 10759 10757 10754 10751 10748 10745 10742 10739 10736 10733 10731 10728 10725 10722 10719 10716 10712 10708 10704 10700 10696 10692 10688 10684 10679 10674 10669 10664 10659 10654 10648 10643 10638 10633 10628 10623 10618 10613 10607 10601 10594 10588 10581 10570 10562 10557 10550 10544 10539 10531 10523 10516 10506 10496 10488 10479 10470 10462 10454 10444 10433 10421 10409 10398 10388 10380 10371 10362 10351 10339 10329 10320 10313 10305 10294 10285 10276 10267 10257 10246 10235 10224 10212
10754 10752 10750 10748 10745 10742 10740 10737 10735 10731 10728 10726 10723 10720 10717 10714 10710 10707 10703 10699 10695 10691 10687 10683 10678 10674 10669 10663 10658 10653 10648 10643 10638 10633 10627 10622 10617 10612 10608 10602 10596 10589 10583 10577 10570 10559 10551 10545 10539 10532 10526 10519 10512 10505 10496 10485 10476 10468 10459 10451 10443 10432 10421 10409 10396 10385 10375 10367 10357 10347 10337 10325 10314 10305 10297 10288 10277 10267 10258 10248 10236 10226 10215 10204 10193
10746 10743 10742 10740 10737 10734 10731 10729 10726 10723 10720 10717 10715 10712 10708 10705 10701 10697 10694 10689 10685 10681 10677 10673 10669 10664 10658 10653 10648 10642 10637 10632 10627 10622 10617 10611 10606 10601 10596 10591 10584 10578 10572 10565 10559 10550 10540 10533 10527 10520 10513 10507 10500 10493 10485 10474 10464 10456 10446 10437 10430 10421 10409 10397 10385 10373 10364 10356 10346 10333 10321 10309 10300 10292 10282 10272 10261 10250 10240 10229 10218 10207 10197 10187 10178
10738 10735 10733 10730 10728 10725 10722 10719 10717 10714 10711 10709 10706 10703 10699 10696 10692 10688 10684 10680 10676 10672 10668 10663 10659 10654 10648 10642 10636 10631 10626 10621 10616 10611 10606 10601 10595 10590 10585 10579 10573 10567 10561 10554 10549 10542 10532 10522 10515 10508 10501 10495 10488 10481 10474 10464 10454 10445 10435 10424 10416 10409 10398 10387 10376 10364 10353 10346 10336 10321 10306 10294 10287 10280 10270 10258 10247 10235 10226 10215 10202 10189 10178 10170 10161
10730 10727 10724 10720 10718 10716 10712 10710 10707 10704 10702 10699 10696 10693 10690 10686 10682 10678 10674 10670 10666 10662 10658 10653 10648 10643 10637 10631 10625 10620 10615 10610 10606 10600 10595 10590 10584 10579 10573 10567 10561 10555 10549 10543 10538 10532 10524 10513 10505 10498 10490 10483 10477 10470 10463 10454 10445 10436 10426 10415 10405 10398 10388 10376 10364 10351 10340 10333 10326 10312 10294 10280 10272 10266 10258 10248 10235 10222 10212 10201 10188 10173 10161 10152 10143
10720 10718 10715 10710 10708 10706 10702 10700 10697 10695 10692 10689 10686 10683 10679 10676 10672 10668 10665 10661 10657 10652 10647 10643 10637 10632 10626 10620 10614 10609 10604 10599 10594 10589 10583 10578 10573 10567 10561 10555 10549 10542 10536 10531 10525 10520 10513 10504 10494 10487 10479 10472 10465 10458 10451 10443 10434 10426 10418 10407 10396 10387 10376 10364 10353 10341 10328 10317 10310 10299 10284 10269 10259 10251 10242 10234 10223 10210 10197 10185 10172 10160 10148 10136 10126
10710 10708 10705 10701 10698 10696 10693 10690 10688 10685 10682 10679 10676 10673 10669 10666 10662 10659 10655 10651 10647 10642 10637 10632 10626 10620 10614 10609 10603 10598 10593 10588 10583 10577 10572 10566 10560 10555 10549 10542 10536 10530 10523 10517 10511 10505 10499 10493 10484 10475 10468 10461 10453 10446 10440 10433 10423 10414 10405 10395 10385 10376 10365 10351 10341 10333 10323 10311 10298 10286 10273 10260 10250 10240 10229 10218 10208 10197 10185 10173 10159 10147 10136 10124 10113
10700 10697 10695 10692 10689 10686 10683 10681 10678 10675 10672 10669 10665 10662 10659 10656 10652 10649 10645 10641 10636 10631 10626 10620 10615 10609 10603 10598 10592 10587 10582 10577 10571 10566 10560 10554 10549 10543 10536 10530 10523 10516 10510 10504 10497 10491 10484 10479 10472 10464 10456 10448 10441 10433 10426 10421 10413 10404 10395 10383 10372 10364 10355 10341 10328 10318 10313 10306 10294 10277 10262 10251 10241 10231 10221 10208 10196 10184 10172 10160 10147 10134 10123 10113 10103
10691 10687 10685 10682 10680 10677 10674 10671 10668 10665 10662 10658 10655 10652 10649 10646 10642 10638 10635 10630 10625 10620 10614 10609 10603 10598 10592 10587 10582 10576 10570 10565 10559 10554 10549 10543 10537 10531 10524 10517 10510 10504 10497 10490 10484 10477 10470 10464 10459 10452 10444 10436 10429 10421 10412 10405 10397 10390 10386 10378 10366 10354 10343 10332 10321 10310 10301 10294 10285 10268 10250 10238 10228 10217 10209 10198 10187 10176 10162 10148 10136 10123 10111 10100 10091
10680 10677 10674 10672 10670 10667 10664 10661 10658 10655 10651 10648 10645 10642 10639 10635 10632 10628 10624 10619 10614 10609 10603 10598 10592 10587 10582 10576 10571 10565 10559 10553 10548 10543 10538 10531 10525 10519 10512 10505 10498 10491 10484 10477 10471 10464 10457 10451 10445 10439 10432 10423 10416 10409 10400 10391 10381 10371 10366 10363 10358 10348 10338 10325 10312 10304 10296 10284 10273 10259 10243 10231 10219 10205 10195 10187 10177 10166 10153 10139 10128 10115 10102 10090 10081
10670 10668 10665 10662 10660 10657 10654 10651 10648 10644 10641 10638 10635 10632 10628 10625 10621 10617 10613 10608 10603 10597 10592 10587 10582 10577 10571 10565 10560 10553 10547 10542 10536 10531 10525 10519 10513 10507 10500 10493 10486 10479 10471 10465 10458 10451 10444 10438 10432 10426 10419 10410 10403 10396 10388 10379 10370 10360 10350 10344 10339 10333 10327 10316 10300 10288 10285 10277 10264 10248 10234 10225 10215 10198 10186 10179 10168 10155 10142 10128 10117 10106 10094 10082 10073
10660 10658 10655 10653 10650 10647 10644 10641 10638 10634 10631 10628 10625 10621 10618 10614 10610 10606 10601 10596 10591 10587 10582 10577 10572 10566 10561 10555 10548 10542 10536 10530 10525 10519 10513 10506 10500 10494 10487 10481 10474 10467 10459 10452 10445 10439 10432 10426 10419 10413 10406 10397 10390 10384 10377 10368 10359 10350 10340 10331 10324 10315 10307 10301 10288 10271 10265 10262 10252 10234 10217 10209 10204 10189 10175 10168 10159 10145 10131 10118 10106 10095 10085 10075 10065
10650 10648 10645 10643 10640 10637 10634 10631 10628 10624 10621 10617 10614 10610 10607 10603 10599 10594 10590 10585 10581 10576 10572 10567 10561 10556 10550 10544 10537 10531 10524 10519 10513 10507 10500 10494 10487 10481 10475 10470 10463 10455 10447 10440 10433 10426 10420 10414 10406 10400 10394 10385 10377 10371 10364 10357 10347 10338 10328 10318 10310 10300 10290 10285 10279 10265 10253 10249 10242 10225 10205 10195 10189 10175 10160 10154 10147 10134 10121 10110 10098 10085 10075 10066 10056
10640 10638 10635 10633 10630 10627 10624 10620 10617 10613 10609 10606 10602 10599 10595 10592 10587 10583 10579 10575 10571 10566 10562 10556 10551 10545 10539 10532 10526 10520 10514 10508 10502 10496 10489 10482 10476 10469 10464 10458 10451 10443 10436 10428 10421 10414 10408 10402 10394 10387 10381 10373 10365 10358 10351 10345 10335 10325 10315 10304 10293 10284 10273 10265 10261 10255 10245 10239 10233 10218 10197 10182 10173 10158 10143 10137 10132 10120 10107 10098 10088 10076 10064 10055 10046
10630 10628 10625 10622 10619 10616 10613 10609 10605 10601 10598 10594 10591 10587 10583 10580 10576 10572 10568 10565 10561 10556 10551 10546 10540 10534 10527 10521 10515 10510 10503 10497 10491 10484 10477 10470 10464 10458 10453 10446 10439 10432 10424 10417 10411 10404 10397 10390 10382 10374 10368 10361 10353 10345 10338 10332 10324 10313 10302 10291 10279 10268 10257 10246 10239 10234 10228 10222 10218 10206 10186 10171 10161 10145 10129 10122 10117 10106 10092 10083 10077 10066 10054 10046 10037
10620 10617 10614 10611 10608 10605 10601 10597 10593 10590 10586 10583 10579 10575 10572 10568 10565 10562 10558 10554 10550 10545 10540 10534 10528 10522 10515 10510 10505 10499 10493 10487 10480 10472 10465 10458 10453 10447 10440 10434 10427 10420 10412 10405 10398 10392 10384 10378 10370 10361 10354 10348 10340 10332 10324 10316 10309 10300 10291 10281 10270 10258 10245 10233 10223 10214 10207 10202 10199 10191 10175 10161 10151 10135 10117 10107 10103 10093 10079 10069 10064 10056 10045 10036 10028
10609 10606 10603 10600 10597 10593 10589 10585 10582 10578 10574 10570 10567 10563 10560 10558 10555 10552 10548 10544 10540 10534 10528 10523 10516 10510 10504 10498 10493 10488 10482 10476 10468 10460 10453 10446 10441 10434 10427 10421 10414 10406 10399 10391 10384 10377 10370 10363 10356 10347 10339 10332 10325 10317 10309 10301 10293 10285 10277 10269 10260 10250 10237 10223 10210 10198 10188 10182 10179 10174 10162 10150 10141 10126 10107 10094 10090 10083 10068 10055 10050 10045 10036 10026 10019
10598 10595 10591 10588 10585 10581 10577 10574 10570 10566 10562 10559 10556 10553 10550 10547 10544 10541 10538 10533 10528 10522 10516 10510 10504 10498 10492 10487 10482 10477 10471 10464 10456 10448 10441 10434 10428 10421 10414 10407 10400 10392 10385 10378 10370 10363 10355 10347 10340 10332 10323 10316 10309 10302 10295 10287 10279 10271 10263 10254 10245 10237 10227 10215 10201 10187 10175 10168 10163 10158 10148 10136 10129 10117 10097 10082 10077 10073 10059 10044 10038 10034 10025 10016 10009
10586 10583 10579 10576 10573 10569 10565 10561 10557 10554 10551 10548 10545 10542 10539 10536 10533 10530 10526 10521 10516 10509 10503 10497 10491 10485 10480 10475 10471 10466 10460 10452 10444 10436 10429 10423 10416 10409 10401 10394 10386 10379 10371 10364 10356 10349 10341 10333 10325 10317 10309 10301 10294 10288 10281 10273 10266 10258 10250 10240 10231 10222 10215 10206 10195 10180 10166 10158 10153 10145 10135 10124 10116 10107 10090 10070 10063 10062 10053 10036 10027 10024 10016 10006 9999
10573 10570 10567 10564 10560 10557 10553 10550 10546 10544 10540 10537 10534 10530 10527 10525 10522 10518 10514 10508 10502 10496 10490 10484 10479 10473 10468 10464 10459 10454 10447 10439 10432 10424 10417 10411 10405 10398 10389 10381 10373 10366 10359 10350 10342 10334 10327 10319 10311 10303 10295 10288 10281 10274 10266 10259 10251 10244 10237 10228 10218 10210 10202 10196 10188 10174 10158 10147 10142 10137 10127 10114 10104 10097 10084 10064 10049 10046 10045 10032 10018 10013 10008 9998 9990
10560 10557 10554 10552 10549 10546 10542 10539 10535 10532 10528 10525 10522 10519 10516 10513 10510 10506 10501 10495 10489 10483 10477 10472 10466 10460 10456 10452 10447 10441 10434 10426 10419 10412 10405 10399 10393 10386 10377 10370 10362 10354 10347 10338 10329 10320 10312 10305 10297 10289 10281 10274 10267 10260 10252 10244 10237 10229 10222 10215 10206 10198 10190 10183 10175 10165 10151 10137 10130 10125 10118 10107 10095 10085 10077 10064 10044 10031 10029 10023 10012 10004 9998 9990 9982
10548 10545 10543 10540 10537 10534 10530 10527 10523 10520 10516 10513 10510 10507 10504 10500 10497 10493 10487 10481 10475 10470 10464 10459 10453 10448 10444 10440 10435 10428 10421 10413 10406 10399 10393 10387 10381 10373 10365 10358 10351 10343 10335 10327 10318 10308 10300 10291 10283 10275 10267 10260 10254 10246 10238 10231 10224 10216 10209 10202 10194 10186 10179 10171 10161 10151 10141 10130 10121 10114 10108 10099 10088 10075 10065 10058 10046 10030 10018 10011 10004 9997 9990 9982 9975